This is the latest recevied weather packets stored in our database for station/object KC9MWQ-13. If no packets are shown the sender has not sent any weather packets the latest 10 day(s).
| Time | Temp. | Humidity | Pressure | Rain* | Wind** | Luminosity | Snow |
|---|---|---|---|---|---|---|---|
| 1777384378 | 13.33° C | 90% | 1013.8 hPa | 0 mm | - | 299 W/m² | - |
| 1777384074 | 13.33° C | 89% | 1013.8 hPa | 0 mm | - | 246 W/m² | - |
| 1777383770 | 12.78° C | 90% | 1014 hPa | 0 mm | - | 199 W/m² | - |
| 1777383467 | 12.78° C | 89% | 1013.6 hPa | 0 mm | - | 121 W/m² | - |
| 1777383163 | 13.33° C | 90% | 1013.5 hPa | 0 mm | - | 126 W/m² | - |
| 1777382860 | 12.78° C | 91% | 1013.8 hPa | 0 mm | - | 238 W/m² | - |
| 1777382555 | 12.78° C | 91% | 1013.8 hPa | 0 mm | - | 97 W/m² | - |
| 1777382252 | 12.78° C | 91% | 1013.7 hPa | 0 mm | - | 79 W/m² | - |
| 1777381948 | 13.33° C | 92% | 1013.3 hPa | 0 mm | - | 64 W/m² | - |
| 1777381648 | 13.33° C | 93% | 1013.4 hPa | 0 mm | - | 71 W/m² | - |
| 1777381344 | 13.33° C | 94% | 1013.2 hPa | 0 mm | - | 68 W/m² | - |
| 1777381041 | 13.33° C | 94% | 1013 hPa | 0 mm | - | 53 W/m² | - |
| 1777380737 | 13.33° C | 94% | 1013 hPa | 0 mm | - | 52 W/m² | - |
| 1777380434 | 13.33° C | 95% | 1012.9 hPa | 0 mm | - | 54 W/m² | - |
| 1777380131 | 13.33° C | 94% | 1013 hPa | 0 mm | - | 47 W/m² | - |
| 1777379826 | 13.33° C | 94% | 1012.6 hPa | 0 mm | - | 42 W/m² | - |
| 1777379523 | 13.33° C | 93% | 1012.7 hPa | 0 mm | - | 46 W/m² | - |
| 1777379217 | 13.33° C | 94% | 1012.4 hPa | 0 mm | - | 44 W/m² | - |
| 1777378913 | 13.33° C | 93% | 1012.2 hPa | 0 mm | - | 37 W/m² | - |
| 1777378609 | 13.33° C | 94% | 1012.3 hPa | 0 mm | - | 34 W/m² | - |
| 1777378305 | 13.33° C | 93% | 1012.1 hPa | 0 mm | - | 28 W/m² | - |
| 1777378004 | 13.33° C | 94% | 1012.1 hPa | 0 mm | - | 30 W/m² | - |
| 1777377698 | 13.89° C | 94% | 1012.1 hPa | 0 mm | - | 27 W/m² | - |
| 1777377393 | 13.89° C | 94% | 1011.9 hPa | 0 mm | - | 26 W/m² | - |
| 1777377090 | 13.89° C | 94% | 1011.7 hPa | 0 mm | - | 34 W/m² | - |
* Rain latest hour (hover to see other rain measurements)
** Current wind speed in m/s (hover to see current wind gust speed)